Terminal Aerodrome Forecast
Issued by NWS Mt. Holly, NJ

Home | Current Version | Previous Version | Text Only | Print | Product List | Glossary On
Versions: 1 2 3 4 5 6 7 8 9 10 11 12 13 14 15 16 17 18 19 20 21 22 23 24 25 26 27 28
000
FTUS41 KPHI 271100
TAFTTN
TAF
KTTN 271134Z 2712/2812 35012G20KT 3SM -SN OVC020
      TEMPO 2712/2716 1 1/2SM -SN OVC010
     FM271900 33015G24KT P6SM SCT025 BKN080
     FM280300 31012KT P6SM SCT025=

USA.gov is the U.S. government's official web portal to all federal, state and local government web resources and services.